Time,TemperatureF,DewpointF,PressureIn,WindDirection,WindDirectionDegrees,WindSpeedMPH,WindSpeedGustMPH,Humidity,HourlyPrecipIn,Conditions,Clouds,dailyrainin,SoftwareType,DateUTC
2013-08-10 00:27:00,63.5,59.9,27.84,SE,135,3.1,4.5,88,0.28,,,0.06,pywws,2013-08-10 07:27:00,
2013-08-10 00:57:00,63.3,59.4,27.83,SE,135,3.8,5.4,87,0.06,,,0.06,pywws,2013-08-10 07:57:00,
2013-08-10 01:27:00,63.0,59.0,27.83,SE,135,3.1,3.8,87,0.00,,,0.06,pywws,2013-08-10 08:27:00,
2013-08-10 01:57:00,63.5,59.2,27.86,SE,135,2.2,7.6,86,0.00,,,0.06,pywws,2013-08-10 08:57:00,
2013-08-10 02:27:00,65.3,58.6,27.85,South,180,3.8,4.5,79,0.00,,,0.06,pywws,2013-08-10 09:27:00,
2013-08-10 02:57:00,64.8,59.1,27.85,SE,135,2.2,3.8,82,0.00,,,0.06,pywws,2013-08-10 09:57:00,
2013-08-10 03:27:00,65.3,58.3,27.87,ESE,112,0.7,2.2,78,0.00,,,0.06,pywws,2013-08-10 10:27:00,
2013-08-10 03:57:00,66.0,58.2,27.86,WSW,248,2.2,4.5,76,0.00,,,0.06,pywws,2013-08-10 10:57:00,
2013-08-10 04:27:00,66.0,57.9,27.87,SW,225,0.7,3.1,75,0.00,,,0.06,pywws,2013-08-10 11:27:00,
2013-08-10 04:57:00,65.3,57.2,27.88,South,180,0.7,1.6,75,0.00,,,0.06,pywws,2013-08-10 11:57:00,
2013-08-10 05:27:00,64.2,57.2,27.90,SE,135,1.6,2.2,78,0.00,,,0.06,pywws,2013-08-10 12:27:00,
2013-08-10 05:57:00,65.1,56.2,27.91,NW,315,0.7,2.2,73,0.00,,,0.06,pywws,2013-08-10 12:57:00,
2013-08-10 06:27:00,63.3,57.4,27.92,East,90,0.7,1.6,81,0.00,,,0.06,pywws,2013-08-10 13:27:00,
2013-08-10 06:57:00,63.1,57.9,27.93,SE,135,0.0,0.7,83,0.00,,,0.06,pywws,2013-08-10 13:57:00,
2013-08-10 07:27:00,63.5,58.9,27.93,East,90,0.7,1.6,85,0.00,,,0.06,pywws,2013-08-10 14:27:00,
2013-08-10 07:57:00,67.1,60.7,27.94,SE,135,0.0,0.7,80,0.00,,,0.06,pywws,2013-08-10 14:57:00,
2013-08-10 08:27:00,68.7,60.1,27.94,West,270,0.0,0.7,74,0.00,,,0.06,pywws,2013-08-10 15:27:00,
2013-08-10 08:57:00,71.6,59.6,27.93,SW,225,0.0,0.7,66,0.00,,,0.06,pywws,2013-08-10 15:57:00,
2013-08-10 09:27:00,73.8,60.4,27.93,SW,225,1.6,2.2,63,0.00,,,0.06,pywws,2013-08-10 16:27:00,
2013-08-10 09:57:00,75.9,61.5,27.92,WSW,248,0.7,2.2,61,0.01,,,0.07,pywws,2013-08-10 16:57:00,
2013-08-10 10:27:00,77.2,60.2,27.92,SW,225,0.7,2.2,56,0.01,,,0.07,pywws,2013-08-10 17:27:00,
2013-08-10 10:57:00,79.2,58.3,27.92,West,270,2.2,3.8,49,0.00,,,0.07,pywws,2013-08-10 17:57:00,
2013-08-10 11:27:00,82.4,58.3,27.92,West,270,1.6,3.1,44,0.00,,,0.07,pywws,2013-08-10 18:27:00,
2013-08-10 11:57:00,81.9,55.8,27.91,North,0,3.1,5.4,41,0.00,,,0.07,pywws,2013-08-10 18:57:00,
2013-08-10 12:27:00,82.9,56.8,27.91,WNW,292,3.1,4.5,41,0.00,,,0.07,pywws,2013-08-10 19:27:00,
2013-08-10 12:57:00,85.1,58.0,27.91,NW,315,1.6,5.4,40,0.00,,,0.07,pywws,2013-08-10 19:57:00,
2013-08-10 13:27:00,85.1,54.3,27.90,West,270,3.8,8.3,35,0.00,,,0.07,pywws,2013-08-10 20:27:00,
2013-08-10 13:57:00,86.0,55.1,27.89,NE,45,3.1,6.0,35,0.00,,,0.07,pywws,2013-08-10 20:57:00,
2013-08-10 14:27:00,86.4,53.0,27.89,North,0,1.6,6.9,32,0.00,,,0.07,pywws,2013-08-10 21:27:00,
2013-08-10 14:57:00,87.3,52.9,27.88,SW,225,2.2,5.4,31,0.00,,,0.07,pywws,2013-08-10 21:57:00,
2013-08-10 15:27:00,87.3,52.9,27.87,WSW,248,2.2,3.8,31,0.00,,,0.07,pywws,2013-08-10 22:27:00,
2013-08-10 15:57:00,88.9,53.4,27.85,West,270,1.6,2.2,30,0.00,,,0.07,pywws,2013-08-10 22:57:00,
2013-08-10 16:27:00,90.9,54.2,27.83,West,270,0.7,2.2,29,0.00,,,0.07,pywws,2013-08-10 23:27:00,
2013-08-10 16:57:00,90.0,52.4,27.83,North,0,3.1,4.5,28,0.00,,,0.07,pywws,2013-08-10 23:57:00,
2013-08-10 17:26:00,85.8,52.5,27.83,SSW,202,2.2,3.1,32,0.00,,,0.07,pywws,2013-08-11 00:26:00,
2013-08-10 17:56:00,86.7,52.4,27.83,NE,45,1.6,3.8,31,0.00,,,0.07,pywws,2013-08-11 00:56:00,
2013-08-10 18:26:00,90.3,51.8,27.82,SE,135,0.0,1.6,27,0.00,,,0.07,pywws,2013-08-11 01:26:00,
2013-08-10 18:57:00,88.2,52.8,27.83,East,90,0.7,0.7,30,0.00,,,0.07,pywws,2013-08-11 01:57:00,
2013-08-10 19:27:00,83.1,54.9,27.84,SW,225,1.6,2.2,38,0.00,,,0.07,pywws,2013-08-11 02:27:00,
2013-08-10 19:57:00,79.2,54.7,27.86,SW,225,6.0,11.4,43,0.00,,,0.07,pywws,2013-08-11 02:57:00,
2013-08-10 20:27:00,78.1,56.2,27.87,West,270,4.5,7.6,47,0.00,,,0.07,pywws,2013-08-11 03:27:00,
2013-08-10 20:57:00,76.3,55.7,27.88,SW,225,3.8,5.4,49,0.00,,,0.07,pywws,2013-08-11 03:57:00,
2013-08-10 21:27:00,75.2,51.8,27.88,East,90,5.4,9.2,44,0.00,,,0.07,pywws,2013-08-11 04:27:00,
2013-08-10 21:57:00,75.0,49.0,27.87,SW,225,4.5,7.6,40,0.00,,,0.07,pywws,2013-08-11 04:57:00,
2013-08-10 22:27:00,74.5,48.6,27.88,South,180,0.7,2.2,40,0.00,,,0.07,pywws,2013-08-11 05:27:00,
2013-08-10 22:57:00,74.1,47.6,27.91,South,180,0.7,2.2,39,0.00,,,0.07,pywws,2013-08-11 05:57:00,
2013-08-10 23:27:00,72.1,53.5,27.95,East,90,3.1,4.5,52,0.00,,,0.07,pywws,2013-08-11 06:27:00,
2013-08-10 23:57:00,62.1,57.5,27.96,SE,135,1.6,3.1,85,0.08,,,0.15,pywws,2013-08-11 06:57:00,